When you browse on this site, cookies collect data to enhance your experience and personalize the content and advertising you see.
Visit our Privacy Policy to learn more. By continuing to use the site, you agree to this use of cookies and data.
  • In Sweden
  • List of Countries
  • For 7 days
  • Water Temperature
  • Weather Map
  • Weather Widgets
  • user-avatar
    Login

    Hourly Weather Molepolole

    Today, 1 April, Wednesday

    Time Temperature Precipitation Wind Pressure Humidity
    00:00 +23°C° 0 mm 1 mps 665 mmHg 50%
    01:00 +23°C° 0 mm 1 mps 665 mmHg 50%
    02:00 +24°C° 0 mm 1 mps 665 mmHg 48%
    03:00 +23°C° 0 mm 2 mps 665 mmHg 49%
    04:00 +23°C° 0 mm 2 mps 665 mmHg 51%
    05:00 +23°C° 0 mm 2 mps 665 mmHg 52%
    06:00 +23°C° 0 mm 2 mps 665 mmHg 51%
    07:00 +23°C° 0 mm 2 mps 666 mmHg 50%
    08:00 +23°C° 0 mm 2 mps 667 mmHg 50%
    09:00 +25°C° 0 mm 2 mps 667 mmHg 47%
    10:00 +26°C° 0 mm 3 mps 667 mmHg 43%
    11:00 +27°C° 0 mm 4 mps 668 mmHg 40%
    12:00 +28°C° 0 mm 3 mps 667 mmHg 37%
    13:00 +29°C° 0 mm 3 mps 667 mmHg 34%
    14:00 +30°C° 0 mm 3 mps 667 mmHg 31%
    15:00 +30°C° 0 mm 3 mps 667 mmHg 31%
    16:00 +30°C° 0 mm 4 mps 666 mmHg 32%
    17:00 +29°C° 0 mm 4 mps 666 mmHg 32%
    18:00 +28°C° 0 mm 4 mps 666 mmHg 36%
    19:00 +26°C° 0 mm 3 mps 666 mmHg 39%
    20:00 +25°C° 0 mm 3 mps 666 mmHg 43%
    21:00 +24°C° 0 mm 3 mps 666 mmHg 45%
    22:00 +24°C° 0 mm 3 mps 666 mmHg 46%
    23:00 +22°C° 0 mm 3 mps 666 mmHg 48%

    Tomorrow, 2 April, Thursday

    Time Temperature Precipitation Wind Pressure Humidity
    00:00 +22°C° 0 mm 3 mps 666 mmHg 50%
    01:00 +22°C° 0 mm 4 mps 666 mmHg 53%
    02:00 +22°C° 0 mm 5 mps 666 mmHg 55%
    03:00 +22°C° 0 mm 6 mps 666 mmHg 60%
    04:00 +21°C° 0 mm 6 mps 667 mmHg 64%
    05:00 +20°C° 0 mm 6 mps 667 mmHg 69%
    06:00 +20°C° 0 mm 7 mps 667 mmHg 70%
    07:00 +20°C° 0 mm 7 mps 667 mmHg 71%
    08:00 +18°C° 0 mm 7 mps 668 mmHg 71%
    09:00 +21°C° 0 mm 7 mps 668 mmHg 65%
    10:00 +22°C° 0 mm 7 mps 668 mmHg 59%
    11:00 +23°C° 0 mm 7 mps 669 mmHg 52%
    12:00 +26°C° 0 mm 7 mps 668 mmHg 46%
    13:00 +28°C° 0 mm 7 mps 668 mmHg 39%
    14:00 +30°C° 0 mm 7 mps 668 mmHg 33%
    15:00 +30°C° 0 mm 6 mps 667 mmHg 33%
    16:00 +29°C° 0 mm 6 mps 667 mmHg 32%
    17:00 +29°C° 0 mm 6 mps 666 mmHg 32%
    18:00 +27°C° 0 mm 5 mps 666 mmHg 35%
    19:00 +25°C° 0 mm 5 mps 666 mmHg 38%
    20:00 +23°C° 0 mm 5 mps 666 mmHg 42%
    21:00 +22°C° 0 mm 4 mps 666 mmHg 45%
    22:00 +21°C° 0 mm 3 mps 667 mmHg 47%
    23:00 +20°C° 0 mm 2 mps 667 mmHg 50%

    Day after tomorrow, 3 April, Friday

    Time Temperature Precipitation Wind Pressure Humidity
    00:00 +19°C° 0 mm 3 mps 667 mmHg 50%
    01:00 +19°C° 0 mm 3 mps 667 mmHg 49%
    02:00 +19°C° 0 mm 3 mps 667 mmHg 49%
    03:00 +18°C° 0 mm 3 mps 667 mmHg 52%
    04:00 +17°C° 0 mm 3 mps 667 mmHg 55%
    05:00 +16°C° 0 mm 2 mps 667 mmHg 57%
    06:00 +17°C° 0 mm 4 mps 667 mmHg 59%
    07:00 +16°C° 0 mm 5 mps 667 mmHg 61%
    08:00 +16°C° 0 mm 6 mps 668 mmHg 63%
    09:00 +17°C° 0 mm 5 mps 668 mmHg 59%
    10:00 +19°C° 0 mm 3 mps 668 mmHg 54%
    11:00 +20°C° 0 mm 2 mps 669 mmHg 50%
    12:00 +21°C° 0 mm 2 mps 668 mmHg 48%
    13:00 +23°C° 0 mm 2 mps 668 mmHg 46%
    14:00 +24°C° 0 mm 1 mps 668 mmHg 44%
    15:00 +24°C° 0 mm 2 mps 667 mmHg 45%
    16:00 +24°C° 0 mm 2 mps 667 mmHg 46%
    17:00 +23°C° 0 mm 2 mps 666 mmHg 48%
    18:00 +23°C° 0 mm 2 mps 666 mmHg 50%
    19:00 +21°C° 0 mm 2 mps 666 mmHg 52%
    20:00 +21°C° 0 mm 2 mps 666 mmHg 55%
    21:00 +20°C° 0 mm 2 mps 666 mmHg 57%
    22:00 +19°C° 0 mm 2 mps 666 mmHg 59%
    23:00 +19°C° 0 mm 2 mps 666 mmHg 61%

    4 April, Saturday

    Time Temperature Precipitation Wind Pressure Humidity
    00:00 +19°C° 0 mm 2 mps 666 mmHg 60%
    01:00 +20°C° 0 mm 1 mps 666 mmHg 58%
    02:00 +21°C° 0 mm 1 mps 666 mmHg 56%
    03:00 +19°C° 0 mm 2 mps 666 mmHg 59%
    04:00 +18°C° 0 mm 2 mps 666 mmHg 61%
    05:00 +18°C° 0 mm 3 mps 666 mmHg 64%
    06:00 +19°C° 0 mm 3 mps 666 mmHg 62%
    07:00 +19°C° 0 mm 3 mps 667 mmHg 60%
    08:00 +20°C° 0 mm 3 mps 667 mmHg 58%
    09:00 +22°C° 0 mm 3 mps 668 mmHg 51%
    10:00 +25°C° 0 mm 3 mps 668 mmHg 45%
    11:00 +27°C° 0 mm 2 mps 668 mmHg 38%
    12:00 +27°C° 0 mm 2 mps 667 mmHg 35%
    13:00 +28°C° 0 mm 1 mps 667 mmHg 32%
    14:00 +27°C° 0 mm 0 mps 666 mmHg 29%
    15:00 +26°C° 0 mm 0 mps 666 mmHg 30%
    16:00 +28°C° 0 mm 1 mps 665 mmHg 31%
    17:00 +28°C° 0 mm 1 mps 665 mmHg 31%
    18:00 +26°C° 0 mm 1 mps 665 mmHg 36%
    19:00 +25°C° 0 mm 2 mps 665 mmHg 40%
    20:00 +23°C° 0 mm 2 mps 665 mmHg 44%
    21:00 +22°C° 0 mm 1 mps 665 mmHg 48%
    22:00 +21°C° 0 mm 1 mps 665 mmHg 52%
    23:00 +18°C° 0 mm 0 mps 665 mmHg 56%

    5 April, Sunday

    Time Temperature Precipitation Wind Pressure Humidity
    00:00 +18°C° 0 mm 0 mps 665 mmHg 58%
    01:00 +17°C° 0 mm 0 mps 664 mmHg 59%
    02:00 +17°C° 0 mm 0 mps 664 mmHg 61%
    03:00 +17°C° 0 mm 0 mps 664 mmHg 62%
    04:00 +18°C° 0 mm 1 mps 664 mmHg 63%
    05:00 +18°C° 0 mm 1 mps 664 mmHg 64%
    06:00 +20°C° 0 mm 1 mps 664 mmHg 58%
    07:00 +21°C° 0 mm 1 mps 665 mmHg 53%
    08:00 +23°C° 0 mm 1 mps 666 mmHg 47%
    09:00 +25°C° 0 mm 1 mps 666 mmHg 39%
    10:00 +26°C° 0 mm 0 mps 667 mmHg 30%
    11:00 +28°C° 0 mm 0 mps 667 mmHg 22%
    12:00 +31°C° 0 mm 1 mps 667 mmHg 20%
    13:00 +32°C° 0 mm 1 mps 666 mmHg 18%
    14:00 +32°C° 0 mm 2 mps 665 mmHg 16%
    15:00 +32°C° 0 mm 2 mps 665 mmHg 16%
    16:00 +32°C° 0 mm 2 mps 665 mmHg 16%
    17:00 +32°C° 0 mm 2 mps 664 mmHg 16%
    18:00 +29°C° 0 mm 2 mps 664 mmHg 19%
    19:00 +27°C° 0 mm 2 mps 664 mmHg 23%
    20:00 +24°C° 0 mm 2 mps 664 mmHg 26%
    21:00 +24°C° 0 mm 1 mps 663 mmHg 28%
    22:00 +23°C° 0 mm 1 mps 663 mmHg 31%
    23:00 +22°C° 0 mm 1 mps 663 mmHg 33%

    6 April, Monday

    Time Temperature Precipitation Wind Pressure Humidity
    00:00 +21°C° 0 mm 1 mps 663 mmHg 34%
    01:00 +21°C° 0 mm 1 mps 663 mmHg 36%
    02:00 +18°C° 0 mm 0 mps 663 mmHg 38%
    03:00 +20°C° 0 mm 1 mps 662 mmHg 38%
    04:00 +20°C° 0 mm 1 mps 662 mmHg 38%
    05:00 +19°C° 0 mm 1 mps 662 mmHg 39%
    06:00 +21°C° 0 mm 1 mps 663 mmHg 36%
    07:00 +23°C° 0 mm 1 mps 663 mmHg 33%
    08:00 +22°C° 0 mm 0 mps 664 mmHg 29%
    09:00 +27°C° 0 mm 1 mps 665 mmHg 26%
    10:00 +29°C° 0 mm 2 mps 665 mmHg 22%
    11:00 +33°C° 0 mm 3 mps 665 mmHg 18%
    12:00 +34°C° 0 mm 3 mps 665 mmHg 17%
    13:00 +34°C° 0 mm 3 mps 664 mmHg 15%
    14:00 +35°C° 0 mm 3 mps 664 mmHg 14%
    15:00 +35°C° 0 mm 3 mps 663 mmHg 14%
    16:00 +35°C° 0 mm 4 mps 663 mmHg 14%
    17:00 +34°C° 0 mm 4 mps 662 mmHg 15%
    18:00 +32°C° 0 mm 4 mps 662 mmHg 19%
    19:00 +29°C° 0 mm 4 mps 662 mmHg 22%
    20:00 +27°C° 0 mm 4 mps 662 mmHg 26%
    21:00 +26°C° 0 mm 4 mps 662 mmHg 28%
    22:00 +25°C° 0 mm 3 mps 662 mmHg 30%
    23:00 +25°C° 0 mm 3 mps 662 mmHg 32%
    Show more